Flag for U.S.A. Weather past 2 weeks in New Haven, Connecticut, U.S.A.

Now
78 °F

Broken clouds.


Feels Like: 80 °F
Forecast: 67 / 81 °F
Wind: 6 mph from Southwest

Location: Tweed-New Haven Airport

Current Time: Jul 26, 2014 at 12:19:04 PM

Latest Report: Jul 26, 2014 at 11:53 AM


Visibility: 10 mi

Pressure: 29.98 "Hg

Humidity: 54%

Dew point: 60 °F

Location of New HavenLocation

Historic Weather in New Haven — Graph

°F

New Haven temperature yesterday

Maximum temperature yesterday: 80 °F (at 11:53 AM)
Minimum temperature yesterday: 62 °F (at 5:53 AM)
Average temperature yesterday: 74 °F

Past Weeks' High & Low Weather Summary

 TemperatureHumidityPressure
High85 °F (Jul 23, 2:53 PM)94% (Jul 14, 9:00 PM)30.26 "Hg (Jul 14, 9:00 PM)
Low62 °F (Jul 21, 4:53 AM)31% (Jul 18, 1:53 PM)29.74 "Hg (Jul 15, 5:53 PM)
Average74 °F70%30.02 "Hg
* Reported Jul 11 10:53 AM — Jul 26 10:53 AM, New Haven, Weather by CustomWeather, © 2014

Note: Actual official high and low records may vary slightly from our data, if they occured in-between our weather recording intervals... More about our weather records

Advertising

New Haven weather history for previous 24 hours

 ConditionsComfort  
Time TempWeatherWind HumidityBarometerVisibility
10:53 AM
Jul 26
77 °FBroken clouds.3 mph62%29.99 "Hg10 mi
9:53 AM76 °FBroken clouds.7 mph69%29.99 "Hg10 mi
8:53 AM75 °FBroken clouds.6 mph71%30.00 "Hg10 mi
7:53 AM73 °FPartly sunny.3 mph76%30.00 "Hg10 mi
6:53 AM72 °FPartly sunny.3 mph78%30.00 "Hg10 mi
5:53 AM72 °FPassing clouds.No wind78%29.99 "Hg10 mi
4:53 AM73 °FClear.5 mph79%29.98 "Hg10 mi
3:53 AM73 °FClear.5 mph81%29.98 "Hg10 mi
2:53 AM73 °FClear.5 mph79%29.98 "Hg10 mi
1:53 AM73 °FClear.3 mph76%29.99 "Hg10 mi
12:53 AM73 °FClear.5 mph74%30.00 "Hg10 mi
11:53 PM
Jul 25
73 °FClear.5 mph71%30.01 "Hg10 mi
10:53 PM74 °FClear.5 mph69%30.01 "Hg10 mi
9:53 PM75 °FClear.7 mph64%30.02 "Hg10 mi
8:53 PM76 °FSunny.5 mph56%29.99 "Hg10 mi
7:53 PM77 °FSunny.6 mph54%29.97 "Hg10 mi
6:53 PM78 °FSunny.5 mph54%29.97 "Hg10 mi
5:53 PM79 °FSunny.7 mph50%29.96 "Hg10 mi
4:53 PM79 °FPassing clouds.10 mph52%29.96 "Hg10 mi
3:53 PM79 °FPassing clouds.10 mph54%29.98 "Hg10 mi
2:53 PM79 °FPassing clouds.8 mph52%29.98 "Hg10 mi
1:53 PM78 °FPassing clouds.9 mph52%29.98 "Hg10 mi
12:53 PM79 °FPassing clouds.6 mph48%29.99 "Hg10 mi
Weather by CustomWeather, © 2014

See weather overviewHow to use our weather pages